Regional Weather Roundup
Issued by NWS

Home | Current Version | Previous Version | Text Only | Print | Product List | Glossary Off
Versions: 1 2 3 4 5 6 7 8 9 10 11 12 13 14 15 16 17 18 19 20 21 22 23 24 25 26 27 28 29 30 31 32 33 34 35 36 37 38 39 40 41 42 43 44 45 46 47 48 49 50

000
ASUS43 KFSD 242202
RWRSD

WEATHER ROUNDUP FOR SOUTH DAKOTA
NATIONAL WEATHER SERVICE SIOUX FALLS SD
500 PM CDT SUN JUL 24 2016

NOTE: "FAIR" INDICATES FEW OR NO CLOUDS BELOW 12,000 FEET WITH NO
SIGNIFICANT WEATHER AND/OR OBSTRUCTIONS TO VISIBILITY.


SDZ001>005-009-010-012>017-242300-
NORTHWEST AND NORTH CENTRAL SOUTH DAKOTA

CITY           SKY/WX    TMP DP  RH WIND       PRES   REMARKS
BUFFALO          N/A     89  44  20 VRB7      30.01F
FAITH            N/A     87  41  19 SW7       30.08F
MOBRIDGE       SUNNY     88  50  27 NW8       30.02F
$$

SDZ012>016-024>037-041>051-057-063-072>074-242300-
SOUTHWEST AND SOUTH CENTRAL SOUTH DAKOTA

CITY           SKY/WX    TMP DP  RH WIND       PRES   REMARKS
RAPID CTY ARPT SUNNY     87  47  24 VRB7G17   30.10F
PIERRE         SUNNY     85  52  32 VRB5      30.04F
CUSTER         SUNNY     77  41  27 SE12      30.25F
ELLSWORTH AFB  SUNNY     87  47  25 S14G24    30.10S
PHILIP         SUNNY     87  53  31 VRB6      30.06F
PINE RIDGE     MOSUNNY   88  46  23 NE6       30.12S
WINNER         FAIR      87  50  27 VRB5      30.07F
$$

SDZ004>011-016>023-039-040-242300-
NORTHEAST SOUTH DAKOTA

CITY           SKY/WX    TMP DP  RH WIND       PRES   REMARKS
ABERDEEN       SUNNY     85  55  35 NW14      30.01S
WATERTOWN      MOSUNNY   82  57  42 NW15      30.02F
BROOKINGS      CLOUDY    78  60  53 NW13      30.04S
SISSETON         N/A     82  58  43 N12       29.97F
$$

SDZ017-020-022-023-036>040-048>070-242300-
SOUTHEAST SOUTH DAKOTA

CITY           SKY/WX    TMP DP  RH WIND       PRES   REMARKS
SIOUX FALLS    CLOUDY    77  62  59 NW9       30.03F
HURON          SUNNY     84  60  44 W5        30.02F
CHAMBERLAIN    SUNNY     85  53  33 CALM      30.06F
MITCHELL       CLOUDY    79  61  53 W5        30.05F
YANKTON        CLOUDY    79  61  53 W7        30.04S
$$

ABBREVIATIONS USED IN REMARKS
   TC - TEMPERATURE IN CELSIUS
  WCI - WIND CHILL INDEX
   HX - HEAT INDEX
  VSB - VISIBILITY





USA.gov is the U.S. government's official web portal to all federal, state and local government web resources and services.